Find Starlink 32193

NORAD ID: 60428 Int'l Des: 2024-144 Owner: SPXS Country: US Constellation: starlink operational
LEOCIRCULAR

Live Position

Loading 3D Globe...

About Starlink 32193

Description loading...

Upcoming Passes

Passes for default location (London). Set your location on the main map for personalized predictions.

Altitude History

Loading altitude history...

Two-Line Element Set

1 60428U 24144D 26123.86583578 .00000538 00000-0 30301-4 0 9996
2 60428 53.1606 321.0760 0001236 91.2971 268.8171 15.30186989 97798
Epoch: May 3, 2026 • Age: 6 hours

Current Status

Altitude 483.9 km
Velocity 7.62 km/s
Sub-Earth Point -27.50°S, 95.46°W
Launch Date Aug 12, 2024
Age 1.7 years
Type internet

Technical Details

Classification Payload
Mass 730.00 kg
Dry Mass 700.00 kg
Total Mass 730.00 kg
Length 0.30 m
Diameter 4.10 m
Span 29.00 m
Shape Box + pan
Manufacturer SPXS
Bus Type Starlink V2M
Phase Status In Orbit
Owner/State SPXS/US

Most Searched